SCP
1 1 0 0 0 0 0 0 0 0 0 0 0 0 0 0 0 0 0 0 0 0 0 0 0 0 0 0 0 0 0 0 0 0 0 0 0 0 0 0 0 0 0 0 -0
1 1 1 0 0 0 -0 0 0 0 0 0 0 0 0 0 0 0 0 0 0 0 0 0 0 0 0 0 0 0 0 0 0 0 0 0 0 0 0 0 0 0 0 0 0
1 1 1 1 0 0 -0 0 0 0 0 0 0 0 0 0 0 0 0 0 0 0 0 0 0 0 0 0 0 0 0 0 0 0 0 0 0 0 0 0 0 0 0 0 0
1 1 1 1 0 0 0 0 0 0 0 0 0 0 0 0 0 -0 0 0 0 0 0 0 0 0 0 0 0 0 0 0 0 0 0 0 0 0 0 0 0 0 0 0 0
1 1 1 1 0 0 0 0 0 0 0 0 0 0 0 0 0 0 0 0 0 0 0 0 0 0 0 0 0 0 0 0 0 0 0 0 0 0 0 0 0 0 0 0 0
0 1 1 1 0 0 0 0 -0 0 0 0 0 0 0 0 0 0 0 0 0 0 0 0 0 0 0 0 0 0 0 0 0 0 0 0 0 0 0 -0 0 0 0 0 0
0 0 0 1 1 0 0 0 0 0 0 0 0 0 0 0 0 0 0 0 0 0 0 0 0 0 0 0 0 0 0 0 0 0 0 0 0 0 0 -0 -0 0 0 0 0
0 0 0 0 0 0 0 0 -0 -0 0 0 0 0 0 0 0 0 0 0 0 0 0 0 0 0 0 0 0 0 0 0 0 0 0 0 0 0 0 0 -0 0 0 0 0
0 0 0 0 0 0 0 0 -0 -0 0 0 0 0 0 0 0 0 0 0 0 0 0 0 0 0 0 0 0 0 0 0 0 0 0 0 0 0 0 0 0 -0 0 0 0
0 0 0 0 0 0 0 0 0 -0 0 0 0 0 0 0 0 0 0 0 0 0 0 0 0 0 0 0 0 0 0 0 0 0 0 0 -0 0 0 0 0 0 0 0 0
0 0 0 0 0 0 0 0 0 0 0 0 0 0 0 0 0 0 0 0 0 0 0 0 0 0 0 0 0 0 0 0 0 0 0 0 0 0 0 0 0 0 0 0 0
0 0 0 0 0 0 0 0 0 0 0 0 0 0 0 0 0 0 0 0 0 0 0 0 0 0 0 0 0 0 0 0 0 0 0 0 0 -0 0 0 0 0 0 0 0
0 0 0 0 0 0 0 0 0 0 0 0 0 0 0 0 0 0 0 0 0 0 0 0 0 0 0 0 0 0 0 0 0 0 0 0 0 -0 -0 0 0 0 0 0 0
0 0 0 0 0 0 -0 0 0 0 0 0 0 0 0 0 0 0 0 0 0 0 0 0 0 0 0 0 0 0 0 0 0 0 0 0 0 0 0 0 0 0 0 0 0
0 0 0 0 0 0 0 0 0 0 0 0 0 0 0 0 0 0 0 0 0 0 0 0 0 0 0 0 0 0 0 0 0 0 0 0 0 -0 0 0 0 0 0 0 0
0 0 0 0 0 0 0 0 0 0 0 0 0 0 0 0 0 0 0 0 0 0 0 0 0 0 0 0 0 0 0 0 0 0 0 0 0 0 0 0 0 0 0 0 0
0 0 0 0 -0 0 0 0 0 0 0 0 0 0 0 0 0 0 0 0 0 0 0 0 0 0 0 0 0 0 0 0 0 0 0 0 0 0 0 0 0 0 0 0 0
0 0 0 0 0 0 0 0 0 0 0 0 0 0 0 0 0 0 0 0 0 0 0 0 0 0 0 0 0 0 0 0 0 0 0 0 0 0 0 0 0 0 -0 0 0
0 0 0 0 0 0 0 0 -0 0 0 0 0 0 0 0 0 0 0 0 0 0 0 0 0 0 0 0 0 0 0 0 0 0 0 0 0 -0 0 0 0 0 0 -0 0
0 0 0 0 0 0 0 0 -0 -0 0 0 0 0 0 0 0 0 0 0 0 0 0 0 0 0 0 0 0 0 0 0 0 0 0 0 0 0 0 0 0 0 0 0 0
0 0 -0 0 0 0 0 0 -0 0 0 0 0 0 0 0 0 0 0 0 0 0 0 0 0 0 0 0 0 0 0 0 0 0 0 0 0 -0 -0 0 0 0 0 0 0
0 0 0 0 0 0 0 0 0 0 0 0 0 0 0 0 0 0 0 0 0 0 0 0 0 0 0 0 0 0 0 0 0 0 0 0 0 0 0 0 0 0 0 0 0
0 0 0 1 0 0 0 0 0 0 0 0 0 0 0 0 0 0 0 0 0 0 0 0 0 0 0 0 0 0 0 0 0 0 0 0 -0 0 0 0 0 0 0 0 0
0 0 0 0 0 0 0 0 0 0 0 0 0 0 0 0 0 0 0 0 0 0 0 0 0 0 0 0 0 0 0 0 0 0 0 0 0 0 0 0 0 0 0 0 0
0 0 0 0 0 0 0 0 0 0 0 0 0 0 0 0 0 0 0 0 0 0 0 0 0 0 0 0 0 0 0 0 0 0 0 0 0 0 0 0 0 0 0 0 0
0 0 0 -0 0 0 0 0 0 0 0 0 0 0 0 0 0 0 0 0 0 0 0 0 0 0 0 0 0 0 0 0 0 0 0 0 0 0 0 0 0 0 0 0 0
0 0 0 0 0 0 0 0 0 0 0 0 0 0 0 0 0 0 0 0 0 0 0 0 0 0 0 0 0 0 0 0 0 0 0 0 0 0 0 0 0 0 0 0 0
Wind_Speed_500mb
67 64 68 65 62 66 74 74 71 73 72 67 64 60 53 53 49 51 50 54 60 24 35 33 23 19 17 20 15 14 5 13 9 10 7 18 18 11 9 14 11 19 7 16 46
65 64 65 68 67 63 59 69 76 74 76 71 67 63 60 51 44 53 60 58 39 55 29 34 24 19 13 13 16 12 8 13 9 7 5 17 16 19 12 13 13 18 17 27 49
59 63 63 64 61 59 70 74 74 76 78 76 73 64 60 52 35 53 63 54 49 41 55 31 29 16 13 12 14 13 14 13 11 11 6 10 11 10 13 14 25 31 31 36 54
54 62 64 62 62 64 61 70 82 74 78 80 73 69 59 50 23 29 60 61 50 47 34 48 31 17 9 14 17 10 11 14 6 7 7 8 8 9 21 17 10 26 31 37 59
49 59 62 60 62 60 62 58 90 70 80 81 79 73 67 51 40 9 22 57 63 53 46 44 48 31 22 18 15 17 9 14 8 12 5 5 5 7 20 27 17 28 33 39 54
46 51 58 59 60 63 59 64 83 87 78 86 85 77 75 44 42 47 11 39 65 59 48 45 40 48 19 9 12 16 12 9 10 5 7 7 3 1 6 11 30 26 39 44 52
50 46 50 53 56 64 57 70 72 67 71 89 89 87 68 65 48 45 47 30 62 62 55 50 26 47 27 8 13 12 14 7 9 10 7 9 8 16 21 20 22 32 32 42 49
51 51 47 53 47 61 63 57 75 80 48 80 87 88 26 66 33 51 46 34 55 55 42 43 26 45 17 19 9 18 7 10 11 17 8 13 31 26 18 21 24 30 32 36 44
51 47 48 52 48 46 57 49 59 73 78 85 90 86 22 68 51 44 49 47 53 47 38 41 34 21 15 17 8 13 16 28 12 16 7 16 20 33 21 28 31 34 33 36 39
51 52 50 46 48 49 41 54 54 54 84 88 86 45 33 78 75 52 53 49 49 47 35 27 16 18 11 18 28 18 26 8 22 7 10 14 28 19 16 27 37 32 34 37 44
57 52 52 48 49 44 42 40 30 31 73 43 67 54 69 64 78 51 60 56 40 39 18 19 21 37 41 28 12 16 21 25 8 3 7 23 32 29 32 27 29 33 34 37 45
49 47 44 50 46 47 40 45 28 22 24 67 65 50 72 87 37 61 69 38 39 21 28 13 32 31 24 22 18 18 21 13 6 3 6 17 33 29 34 35 44 41 36 40 43
51 50 47 42 42 42 53 59 56 58 12 48 55 53 73 78 40 58 78 37 43 34 36 33 18 37 27 17 22 11 24 14 9 3 5 18 42 45 35 39 41 48 48 39 44
42 38 39 39 39 54 59 64 57 39 8 24 38 30 49 62 20 70 63 43 18 46 37 15 21 34 32 34 32 27 12 11 8 7 16 3 16 30 19 34 40 49 54 65 60
51 50 42 46 31 59 52 63 56 33 14 30 25 52 48 47 64 45 69 16 32 30 21 20 33 40 39 40 33 17 21 16 9 15 10 16 15 18 15 27 36 50 64 71 79
49 51 50 46 60 50 35 39 35 15 17 20 22 25 27 22 36 60 31 24 26 31 7 8 15 25 19 24 33 34 23 17 8 5 16 29 21 16 22 27 27 40 49 64 71
46 47 49 50 50 60 44 45 16 16 7 14 30 45 36 24 26 52 43 34 27 28 30 13 14 6 27 34 18 28 35 9 8 10 13 2 17 29 29 27 17 28 34 38 53
36 35 45 54 54 44 55 17 15 17 13 9 40 52 22 46 31 45 46 35 21 18 32 31 15 24 12 37 22 22 30 11 16 11 4 3 19 9 13 24 27 33 41 35 32
29 39 44 49 60 61 52 24 12 8 19 30 59 51 17 12 24 36 50 50 25 28 21 29 8 9 15 12 30 23 22 12 10 3 3 11 14 22 24 33 17 25 26 36 43
28 36 57 54 68 59 21 35 13 13 25 59 49 47 27 28 36 42 51 47 35 16 6 21 15 9 9 13 2 24 25 11 7 10 10 10 14 20 22 11 12 13 19 25 31
26 16 40 48 72 47 20 17 23 30 51 47 48 37 45 62 53 62 71 30 37 25 8 19 8 12 16 18 33 18 24 9 9 8 6 7 12 10 13 5 6 18 23 26 31
23 12 30 58 28 23 20 15 11 30 62 12 34 31 55 65 37 42 53 25 51 38 29 6 11 16 31 6 6 28 28 33 13 9 11 3 19 10 12 9 10 12 15 27 31
16 23 34 92 30 21 15 14 17 41 50 30 26 19 46 45 22 20 22 22 68 44 35 17 9 14 10 6 1 27 11 34 6 4 15 13 16 7 14 11 6 8 15 20 19
13 14 27 67 62 32 15 36 18 79 30 28 27 30 49 38 19 26 34 14 62 61 37 26 9 16 24 22 28 29 43 46 35 12 14 35 42 10 14 14 14 17 19 27 19
26 10 23 20 38 43 34 34 43 41 6 25 21 61 65 34 20 27 28 24 19 40 12 13 10 7 6 13 24 42 40 40 48 55 30 53 43 43 38 34 53 46 30 39 32
18 11 14 17 36 53 54 37 61 39 28 28 40 74 58 46 27 64 41 33 37 25 28 7 8 9 6 5 12 9 35 46 56 52 45 48 52 18 29 47 49 51 41 53 50
57 52 11 37 41 36 31 52 67 58 9 18 64 67 50 36 38 58 49 37 45 41 40 23 12 13 11 4 12 4 51 51 48 51 59 40 64 9 18 25 37 50 47 49 44
Wind_Direction_500mb
235 233 230 228 228 231 231 227 220 217 212 210 206 209 210 211 213 223 225 223 218 210 203 208 211 202 190 183 142 146 45 220 190 184 140 164 186 175 174 137 177 192 167 176 177
234 231 230 227 226 228 225 232 223 216 211 207 207 206 209 207 211 216 217 221 224 209 196 192 188 186 181 175 162 175 154 231 207 202 159 177 209 169 167 164 201 192 198 176 182
234 228 228 227 227 222 217 217 215 216 208 205 207 205 206 204 214 234 218 218 216 212 215 201 175 172 176 174 180 189 210 198 217 206 154 161 196 191 186 204 210 206 190 182 185
230 225 226 225 223 220 222 219 230 215 209 203 202 198 199 190 205 232 230 223 216 219 214 203 187 185 175 193 189 194 193 175 149 183 152 167 147 200 222 240 239 212 206 191 191
223 223 225 223 224 224 222 222 222 211 211 205 203 194 187 188 213 172 199 207 211 215 215 197 190 184 193 200 165 230 173 207 150 152 152 160 169 258 251 250 253 210 205 205 201
216 221 223 223 221 221 224 223 225 225 210 204 203 199 189 204 214 214 235 199 198 199 200 200 199 181 198 198 202 199 168 127 180 200 230 235 151 220 250 281 232 222 211 209 210
217 218 220 220 220 221 223 226 222 224 214 202 203 199 192 198 212 216 229 212 193 191 186 188 203 175 173 139 193 143 189 237 204 181 214 176 218 227 253 260 222 224 221 217 213
216 218 218 217 220 219 223 226 222 230 216 201 202 199 193 197 208 213 211 192 182 184 189 177 183 188 183 158 143 189 210 223 220 190 202 201 246 242 230 223 222 221 221 222 219
217 220 222 218 217 218 223 219 219 227 229 200 197 194 187 186 193 193 201 184 173 173 178 181 169 169 147 159 151 186 202 216 225 211 177 208 254 242 230 224 225 218 221 227 228
220 226 228 223 220 220 220 220 215 222 230 191 189 177 158 186 186 181 180 183 162 157 146 164 160 183 171 190 200 175 210 207 221 162 206 210 245 259 233 226 235 226 218 227 231
226 226 227 224 218 221 221 210 193 202 229 203 172 186 179 172 180 176 171 163 156 160 170 175 179 200 189 200 245 204 206 224 195 172 227 241 259 243 237 237 240 236 228 226 235
211 216 214 217 219 220 220 215 194 189 222 207 186 194 161 163 154 170 167 152 161 164 138 153 214 197 173 167 149 170 187 203 205 234 262 266 270 266 257 248 247 243 234 233 234
209 214 219 215 218 216 219 225 231 226 285 178 175 175 158 164 161 169 168 158 172 165 179 177 174 158 160 159 153 169 201 175 230 356 244 298 280 264 246 247 246 250 243 240 238
210 212 208 209 222 223 226 224 231 236 244 160 172 168 164 157 142 169 170 148 165 188 180 209 157 168 177 187 187 198 183 174 189 275 259 337 280 265 256 241 230 237 243 239 238
215 218 209 203 208 219 219 218 224 210 232 173 141 160 166 164 140 184 167 153 160 163 175 171 167 177 182 188 186 202 158 176 148 212 270 230 270 264 265 254 241 237 233 236 236
216 222 216 216 224 216 223 212 206 227 214 160 134 138 156 208 154 156 164 158 137 139 156 115 161 174 172 161 183 136 123 96 108 187 257 247 223 242 245 257 249 247 242 237 238
218 221 226 223 229 217 205 194 224 220 138 163 140 146 155 158 132 163 169 156 159 150 176 133 155 144 156 140 156 166 158 151 205 209 245 72 219 252 280 254 251 272 268 251 245
214 226 240 235 217 209 200 197 216 161 177 204 145 141 158 147 155 173 163 172 184 171 157 170 187 179 170 173 168 175 176 173 191 201 220 101 237 241 278 278 278 262 262 267 268
227 239 253 227 210 204 185 223 204 217 142 147 148 150 132 146 133 165 186 181 177 175 158 171 142 146 174 151 148 177 206 121 101 32 245 217 266 266 259 281 244 267 283 268 261
234 254 252 229 205 204 204 209 219 194 149 154 163 158 146 160 139 181 181 192 181 174 151 160 121 208 146 125 77 200 143 172 206 204 240 231 270 245 279 349 343 296 290 289 283
241 236 247 226 198 205 206 201 215 242 167 164 165 169 168 163 171 182 185 173 170 167 135 150 100 157 162 205 184 158 185 189 177 202 233 289 258 219 238 227 299 306 317 315 309
216 216 237 189 193 197 214 173 217 190 208 159 166 175 167 166 167 171 186 171 161 149 152 137 108 147 180 41 271 193 191 184 188 183 241 340 262 174 185 200 242 285 325 332 317
211 212 217 183 194 188 160 175 207 186 187 164 158 185 159 169 147 172 155 159 162 168 163 163 119 109 171 219 290 207 192 198 151 137 196 185 257 147 199 211 235 296 349 343 342
250 188 218 200 190 189 161 192 195 189 176 178 157 136 151 173 142 151 157 150 179 174 168 144 154 161 184 188 157 191 199 199 195 206 190 221 241 195 202 221 254 310 315 315 308
212 228 192 197 184 182 172 192 177 177 231 162 148 158 164 157 134 160 143 128 168 179 138 148 147 113 58 151 164 188 188 189 202 223 208 242 240 243 253 287 291 288 289 290 288
201 206 204 190 159 180 179 201 168 167 179 173 162 167 168 176 182 169 158 155 168 180 171 189 150 128 126 139 162 145 191 196 209 220 232 245 260 252 259 248 260 274 281 279 269
207 213 210 186 170 173 181 174 172 170 241 191 158 159 178 177 132 153 147 135 155 163 180 173 139 146 191 142 124 273 211 199 211 212 219 227 241 192 240 251 255 265 269 267 272
Wind_Speed_850mb
67 64 68 65 62 66 74 74 71 73 72 67 64 60 53 53 49 51 50 54 60 24 35 33 23 19 17 20 15 14 5 13 9 10 7 18 18 11 9 14 11 19 7 16 46
65 64 65 68 67 63 59 69 76 74 76 71 67 63 60 51 44 53 60 58 39 55 29 34 24 19 13 13 16 12 8 13 9 7 5 17 16 19 12 13 13 18 17 27 49
59 63 63 64 61 59 70 74 74 76 78 76 73 64 60 52 35 53 63 54 49 41 55 31 29 16 13 12 14 13 14 13 11 11 6 10 11 10 13 14 25 31 31 36 54
54 62 64 62 62 64 61 70 82 74 78 80 73 69 59 50 23 29 60 61 50 47 34 48 31 17 9 14 17 10 11 14 6 7 7 8 8 9 21 17 10 26 31 37 59
49 59 62 60 62 60 62 58 90 70 80 81 79 73 67 51 40 9 22 57 63 53 46 44 48 31 22 18 15 17 9 14 8 12 5 5 5 7 20 27 17 28 33 39 54
46 51 58 59 60 63 59 64 83 87 78 86 85 77 75 44 42 47 11 39 65 59 48 45 40 48 19 9 12 16 12 9 10 5 7 7 3 1 6 11 30 26 39 44 52
50 46 50 53 56 64 57 70 72 67 71 89 89 87 68 65 48 45 47 30 62 62 55 50 26 47 27 8 13 12 14 7 9 10 7 9 8 16 21 20 22 32 32 42 49
51 51 47 53 47 61 63 57 75 80 48 80 87 88 26 66 33 51 46 34 55 55 42 43 26 45 17 19 9 18 7 10 11 17 8 13 31 26 18 21 24 30 32 36 44
51 47 48 52 48 46 57 49 59 73 78 85 90 86 22 68 51 44 49 47 53 47 38 41 34 21 15 17 8 13 16 28 12 16 7 16 20 33 21 28 31 34 33 36 39
51 52 50 46 48 49 41 54 54 54 84 88 86 45 33 78 75 52 53 49 49 47 35 27 16 18 11 18 28 18 26 8 22 7 10 14 28 19 16 27 37 32 34 37 44
57 52 52 48 49 44 42 40 30 31 73 43 67 54 69 64 78 51 60 56 40 39 18 19 21 37 41 28 12 16 21 25 8 3 7 23 32 29 32 27 29 33 34 37 45
49 47 44 50 46 47 40 45 28 22 24 67 65 50 72 87 37 61 69 38 39 21 28 13 32 31 24 22 18 18 21 13 6 3 6 17 33 29 34 35 44 41 36 40 43
51 50 47 42 42 42 53 59 56 58 12 48 55 53 73 78 40 58 78 37 43 34 36 33 18 37 27 17 22 11 24 14 9 3 5 18 42 45 35 39 41 48 48 39 44
42 38 39 39 39 54 59 64 57 39 8 24 38 30 49 62 20 70 63 43 18 46 37 15 21 34 32 34 32 27 12 11 8 7 16 3 16 30 19 34 40 49 54 65 60
51 50 42 46 31 59 52 63 56 33 14 30 25 52 48 47 64 45 69 16 32 30 21 20 33 40 39 40 33 17 21 16 9 15 10 16 15 18 15 27 36 50 64 71 79
49 51 50 46 60 50 35 39 35 15 17 20 22 25 27 22 36 60 31 24 26 31 7 8 15 25 19 24 33 34 23 17 8 5 16 29 21 16 22 27 27 40 49 64 71
46 47 49 50 50 60 44 45 16 16 7 14 30 45 36 24 26 52 43 34 27 28 30 13 14 6 27 34 18 28 35 9 8 10 13 2 17 29 29 27 17 28 34 38 53
36 35 45 54 54 44 55 17 15 17 13 9 40 52 22 46 31 45 46 35 21 18 32 31 15 24 12 37 22 22 30 11 16 11 4 3 19 9 13 24 27 33 41 35 32
29 39 44 49 60 61 52 24 12 8 19 30 59 51 17 12 24 36 50 50 25 28 21 29 8 9 15 12 30 23 22 12 10 3 3 11 14 22 24 33 17 25 26 36 43
28 36 57 54 68 59 21 35 13 13 25 59 49 47 27 28 36 42 51 47 35 16 6 21 15 9 9 13 2 24 25 11 7 10 10 10 14 20 22 11 12 13 19 25 31
26 16 40 48 72 47 20 17 23 30 51 47 48 37 45 62 53 62 71 30 37 25 8 19 8 12 16 18 33 18 24 9 9 8 6 7 12 10 13 5 6 18 23 26 31
23 12 30 58 28 23 20 15 11 30 62 12 34 31 55 65 37 42 53 25 51 38 29 6 11 16 31 6 6 28 28 33 13 9 11 3 19 10 12 9 10 12 15 27 31
16 23 34 92 30 21 15 14 17 41 50 30 26 19 46 45 22 20 22 22 68 44 35 17 9 14 10 6 1 27 11 34 6 4 15 13 16 7 14 11 6 8 15 20 19
13 14 27 67 62 32 15 36 18 79 30 28 27 30 49 38 19 26 34 14 62 61 37 26 9 16 24 22 28 29 43 46 35 12 14 35 42 10 14 14 14 17 19 27 19
26 10 23 20 38 43 34 34 43 41 6 25 21 61 65 34 20 27 28 24 19 40 12 13 10 7 6 13 24 42 40 40 48 55 30 53 43 43 38 34 53 46 30 39 32
18 11 14 17 36 53 54 37 61 39 28 28 40 74 58 46 27 64 41 33 37 25 28 7 8 9 6 5 12 9 35 46 56 52 45 48 52 18 29 47 49 51 41 53 50
57 52 11 37 41 36 31 52 67 58 9 18 64 67 50 36 38 58 49 37 45 41 40 23 12 13 11 4 12 4 51 51 48 51 59 40 64 9 18 25 37 50 47 49 44
Wind_Direction_850mb
235 233 230 228 228 231 231 227 220 217 212 210 206 209 210 211 213 223 225 223 218 210 203 208 211 202 190 183 142 146 45 220 190 184 140 164 186 175 174 137 177 192 167 176 177
234 231 230 227 226 228 225 232 223 216 211 207 207 206 209 207 211 216 217 221 224 209 196 192 188 186 181 175 162 175 154 231 207 202 159 177 209 169 167 164 201 192 198 176 182
234 228 228 227 227 222 217 217 215 216 208 205 207 205 206 204 214 234 218 218 216 212 215 201 175 172 176 174 180 189 210 198 217 206 154 161 196 191 186 204 210 206 190 182 185
230 225 226 225 223 220 222 219 230 215 209 203 202 198 199 190 205 232 230 223 216 219 214 203 187 185 175 193 189 194 193 175 149 183 152 167 147 200 222 240 239 212 206 191 191
223 223 225 223 224 224 222 222 222 211 211 205 203 194 187 188 213 172 199 207 211 215 215 197 190 184 193 200 165 230 173 207 150 152 152 160 169 258 251 250 253 210 205 205 201
216 221 223 223 221 221 224 223 225 225 210 204 203 199 189 204 214 214 235 199 198 199 200 200 199 181 198 198 202 199 168 127 180 200 230 235 151 220 250 281 232 222 211 209 210
217 218 220 220 220 221 223 226 222 224 214 202 203 199 192 198 212 216 229 212 193 191 186 188 203 175 173 139 193 143 189 237 204 181 214 176 218 227 253 260 222 224 221 217 213
216 218 218 217 220 219 223 226 222 230 216 201 202 199 193 197 208 213 211 192 182 184 189 177 183 188 183 158 143 189 210 223 220 190 202 201 246 242 230 223 222 221 221 222 219
217 220 222 218 217 218 223 219 219 227 229 200 197 194 187 186 193 193 201 184 173 173 178 181 169 169 147 159 151 186 202 216 225 211 177 208 254 242 230 224 225 218 221 227 228
220 226 228 223 220 220 220 220 215 222 230 191 189 177 158 186 186 181 180 183 162 157 146 164 160 183 171 190 200 175 210 207 221 162 206 210 245 259 233 226 235 226 218 227 231
226 226 227 224 218 221 221 210 193 202 229 203 172 186 179 172 180 176 171 163 156 160 170 175 179 200 189 200 245 204 206 224 195 172 227 241 259 243 237 237 240 236 228 226 235
211 216 214 217 219 220 220 215 194 189 222 207 186 194 161 163 154 170 167 152 161 164 138 153 214 197 173 167 149 170 187 203 205 234 262 266 270 266 257 248 247 243 234 233 234
209 214 219 215 218 216 219 225 231 226 285 178 175 175 158 164 161 169 168 158 172 165 179 177 174 158 160 159 153 169 201 175 230 356 244 298 280 264 246 247 246 250 243 240 238
210 212 208 209 222 223 226 224 231 236 244 160 172 168 164 157 142 169 170 148 165 188 180 209 157 168 177 187 187 198 183 174 189 275 259 337 280 265 256 241 230 237 243 239 238
215 218 209 203 208 219 219 218 224 210 232 173 141 160 166 164 140 184 167 153 160 163 175 171 167 177 182 188 186 202 158 176 148 212 270 230 270 264 265 254 241 237 233 236 236
216 222 216 216 224 216 223 212 206 227 214 160 134 138 156 208 154 156 164 158 137 139 156 115 161 174 172 161 183 136 123 96 108 187 257 247 223 242 245 257 249 247 242 237 238
218 221 226 223 229 217 205 194 224 220 138 163 140 146 155 158 132 163 169 156 159 150 176 133 155 144 156 140 156 166 158 151 205 209 245 72 219 252 280 254 251 272 268 251 245
214 226 240 235 217 209 200 197 216 161 177 204 145 141 158 147 155 173 163 172 184 171 157 170 187 179 170 173 168 175 176 173 191 201 220 101 237 241 278 278 278 262 262 267 268
227 239 253 227 210 204 185 223 204 217 142 147 148 150 132 146 133 165 186 181 177 175 158 171 142 146 174 151 148 177 206 121 101 32 245 217 266 266 259 281 244 267 283 268 261
234 254 252 229 205 204 204 209 219 194 149 154 163 158 146 160 139 181 181 192 181 174 151 160 121 208 146 125 77 200 143 172 206 204 240 231 270 245 279 349 343 296 290 289 283
241 236 247 226 198 205 206 201 215 242 167 164 165 169 168 163 171 182 185 173 170 167 135 150 100 157 162 205 184 158 185 189 177 202 233 289 258 219 238 227 299 306 317 315 309
216 216 237 189 193 197 214 173 217 190 208 159 166 175 167 166 167 171 186 171 161 149 152 137 108 147 180 41 271 193 191 184 188 183 241 340 262 174 185 200 242 285 325 332 317
211 212 217 183 194 188 160 175 207 186 187 164 158 185 159 169 147 172 155 159 162 168 163 163 119 109 171 219 290 207 192 198 151 137 196 185 257 147 199 211 235 296 349 343 342
250 188 218 200 190 189 161 192 195 189 176 178 157 136 151 173 142 151 157 150 179 174 168 144 154 161 184 188 157 191 199 199 195 206 190 221 241 195 202 221 254 310 315 315 308
212 228 192 197 184 182 172 192 177 177 231 162 148 158 164 157 134 160 143 128 168 179 138 148 147 113 58 151 164 188 188 189 202 223 208 242 240 243 253 287 291 288 289 290 288
201 206 204 190 159 180 179 201 168 167 179 173 162 167 168 176 182 169 158 155 168 180 171 189 150 128 126 139 162 145 191 196 209 220 232 245 260 252 259 248 260 274 281 279 269
207 213 210 186 170 173 181 174 172 170 241 191 158 159 178 177 132 153 147 135 155 163 180 173 139 146 191 142 124 273 211 199 211 212 219 227 241 192 240 251 255 265 269 267 272